GW1938 Weather Reports


time (UTC)temp
F
wind
direction
speed
knots
gust
knots
rain 1hr
in
rain 24hr
in
rain mn
in
humidity
%
barometer
mb
20260505014448 67 283 4.3 8.7 0.00 0.32 0.23 53 1016.6
20260505012940 67 254 6.1 11.3 0.00 0.32 0.23 48 1016.8
20260505012439 67 254 4.3 9.6 0.00 0.32 0.23 54 1016.8
20260505011938 67 260 7.0 10.4 0.00 0.32 0.23 51 1017.1
20260505011437 67 246 5.2 8.7 0.00 0.32 0.23 55 1017.1
20260505010934 67 245 4.3 10.4 0.00 0.32 0.23 57 1017.0
20260505010432 66 246 4.3 9.6 0.00 0.32 0.23 55 1017.1
20260505004921 66 238 7.0 13.0 0.00 0.32 0.23 52 1017.2
20260505004418 66 239 5.2 9.6 0.00 0.32 0.23 53 1017.2
20260505003917 66 230 6.1 9.6 0.00 0.32 0.23 52 1017.2
20260505003414 66 237 6.1 9.6 0.00 0.32 0.23 54 1017.3
20260505002912 67 218 4.3 7.0 0.00 0.32 0.23 54 1017.3
20260505001906 66 224 5.2 10.4 0.00 0.32 0.23 53 1017.5
20260505001401 66 224 6.1 12.2 0.00 0.32 0.23 51 1017.5
20260505000859 66 227 7.8 12.2 0.00 0.32 0.23 51 1017.4
20260505000358 66 229 7.0 10.4 0.00 0.32 0.23 54 1017.4
20260504235854 66 216 6.1 13.0 0.00 0.32 0.23 52 1017.3
20260504235352 66 223 7.8 13.9 0.00 0.32 0.23 50 1017.3
20260504234347 65 217 7.0 13.9 0.00 0.32 0.23 52 1017.2
20260504232336 64 222 8.7 13.9 0.00 0.32 0.23 54 1017.3
20260504231835 64 228 9.6 15.6 0.00 0.32 0.23 56 1017.4
20260504231332 64 226 7.8 12.2 0.00 0.32 0.23 61 1017.5
20260504230829 64 226 7.0 11.3 0.00 0.32 0.23 61 1017.5
20260504230326 64 223 9.6 17.4 0.00 0.32 0.23 60 1017.4
20260504225321 64 223 8.7 15.6 0.00 0.32 0.23 63 1017.4
20260504224819 64 220 8.7 15.6 0.00 0.32 0.23 64 1017.3
20260504222807 64 221 7.0 12.2 0.00 0.32 0.23 80 1016.9
20260504222306 64 226 7.8 13.0 0.00 0.32 0.23 84 1016.9
20260504221805 64 235 7.8 12.2 0.00 0.32 0.23 88 1016.9
20260504220800 64 231 9.6 13.9 0.00 0.32 0.23 89 1016.6
20260504220258 64 238 7.8 11.3 0.00 0.32 0.23 92 1016.5
20260504215756 63 236 7.8 13.9 0.00 0.32 0.23 91 1016.4
20260504215255 63 237 8.7 14.8 0.00 0.32 0.23 92 1016.2
20260504214753 63 236 7.8 13.9 0.00 0.32 0.23 95 1016.1
20260504214252 63 234 6.1 10.4 0.00 0.32 0.23 97 1016.0
20260504212743 63 239 6.1 11.3 0.00 0.32 0.23 99 1015.8
20260504212242 63 239 7.8 11.3 0.00 0.32 0.23 99 1015.8
20260504211740 63 235 7.0 12.2 0.00 0.32 0.23 100 1015.6
20260504211238 63 235 7.8 13.0 0.00 0.32 0.23 100 1015.5
20260504205729 63 241 6.1 9.6 0.00 0.32 0.23 100 1015.5
20260504205226 63 241 7.0 11.3 0.00 0.32 0.23 100 1015.6
20260504204724 63 234 7.0 10.4 0.00 0.32 0.23 100 1015.6
20260504204222 63 240 7.0 10.4 0.00 0.32 0.23 100 1015.5
20260504203720 63 244 7.0 13.0 0.00 0.32 0.23 100 1015.3
20260504202213 63 235 5.2 8.7 0.00 0.32 0.23 100 1015.1
20260504201710 64 241 6.1 11.3 0.00 0.32 0.23 100 1015.0
20260504201209 64 250 7.0 11.3 0.00 0.32 0.23 100 1015.0
20260504200708 64 240 7.8 13.0 0.00 0.32 0.23 100 1014.9
20260504200207 64 243 8.7 17.4 0.00 0.32 0.23 100 1014.7
20260504195704 64 250 8.7 13.9 0.01 0.32 0.23 100 1014.8
20260504195203 64 251 9.6 16.5 0.01 0.32 0.23 100 1014.8
20260504194701 64 251 9.6 15.6 0.01 0.32 0.23 100 1014.7
20260504194159 64 247 7.0 14.8 0.01 0.32 0.23 100 1014.6
20260504193657 64 255 8.7 15.6 0.01 0.32 0.23 100 1014.6
20260504193156 64 250 9.6 16.5 0.01 0.32 0.23 100 1014.3
20260504192653 64 257 9.6 15.6 0.01 0.32 0.23 100 1014.1
20260504192152 64 262 9.6 16.5 0.01 0.32 0.23 100 1014.1
20260504191651 64 264 7.0 18.2 0.01 0.32 0.23 100 1014.0
20260504191149 64 267 7.8 14.8 0.01 0.32 0.23 100 1014.0
20260504190647 64 270 7.8 15.6 0.01 0.32 0.23 100 1014.1
20260504185642 64 264 6.1 13.9 0.00 0.31 0.22 100 1013.9
20260504185141 64 265 6.1 10.4 0.00 0.31 0.22 100 1013.9
20260504184640 64 263 5.2 10.4 0.00 0.31 0.22 100 1013.9
20260504184139 64 261 7.0 10.4 0.00 0.31 0.22 100 1013.9
20260504183638 64 274 5.2 8.7 0.00 0.31 0.22 100 1014.0
20260504183136 64 267 5.2 9.6 0.00 0.31 0.22 100 1013.9
20260504182635 64 268 5.2 10.4 0.00 0.31 0.22 100 1013.9
20260504182134 64 254 7.0 10.4 0.00 0.31 0.22 100 1013.8
20260504181632 64 254 6.1 10.4 0.00 0.31 0.22 100 1013.8
20260504180123 64 252 7.8 11.3 0.01 0.31 0.22 100 1013.8
20260504175621 64 247 7.8 13.0 0.01 0.31 0.22 100 1014.0
20260504175118 64 258 7.0 10.4 0.01 0.31 0.22 100 1014.0
20260504174113 64 258 7.0 10.4 0.02 0.31 0.22 100 1013.9
20260504173612 64 242 5.2 8.7 0.04 0.31 0.22 100 1013.8
20260504172607 64 236 4.3 7.0 0.09 0.31 0.22 100 1013.8
20260504171602 64 263 5.2 7.0 0.13 0.31 0.22 100 1014.0
20260504170558 64 266 4.3 6.1 0.14 0.31 0.22 100 1014.0
20260504151011 66 267 5.2 8.7 0.00 0.09 0.00 100 1013.8
20260504150508 66 266 5.2 8.7 0.00 0.09 0.00 100 1013.8
20260504140949 66 241 4.3 6.1 0.01 0.09 0.00 100 1013.6
20260504140447 66 255 6.1 8.7 0.01 0.09 0.00 100 1013.9
20260504130413 67 319 2.6 3.5 0.00 0.09 0.09 100 1014.0
20260504110323 67 205 3.5 4.3 0.03 0.08 0.08 100 1015.2
20260504100300 69 263 3.5 5.2 0.04 0.05 0.05 97 1015.2
20260504081213 70 9 6.1 8.7 0.00 0.00 0.00 89 1014.1
20260504080712 71 13 6.1 8.7 0.00 0.00 0.00 89 1014.0
20260504080211 71 15 6.1 8.7 0.00 0.00 0.00 89 1014.0
20260504070146 71 50 8.7 12.2 0.00 0.00 0.00 89 1013.4
20260504060126 72 51 10.4 14.8 0.00 0.00 0.00 83 1013.2
20260504050605 74 63 12.2 16.5 0.00 0.00 0.00 75 1013.1
20260504050103 74 66 11.3 14.8 0.00 0.00 0.00 75 1013.1
20260504045602 74 65 11.3 15.6 0.00 0.00 0.00 74 1013.1
20260504045101 74 71 11.3 14.8 0.00 0.00 0.00 73 1013.2
20260504044558 74 72 12.2 13.9 0.00 0.00 0.00 74 1013.2
20260504043421 74 73 11.3 13.9 0.00 0.00 0.00 72 1013.2
20260504042920 74 81 9.6 13.9 0.00 0.00 0.00 71 1013.2
20260504042419 74 77 9.6 13.0 0.00 0.00 0.00 72 1013.3
20260504041414 74 59 9.6 13.0 0.00 0.00 0.00 72 1013.5
20260504040126 75 64 11.3 13.9 0.00 0.00 0.00 70 1013.5
20260504035624 76 64 11.3 14.8 0.00 0.00 0.00 67 1013.5
20260504035121 78 60 10.4 13.0 0.00 0.00 0.00 63 1013.5
20260504034620 79 56 9.6 12.2 0.00 0.00 0.00 64 1013.5
20260504034117 78 54 9.6 12.2 0.00 0.00 0.00 63 1013.6
20260504033615 78 53 8.7 12.2 0.00 0.00 0.00 64 1013.6
20260504033114 79 53 9.6 13.0 0.00 0.00 0.00 63 1013.6
20260504032613 80 42 7.0 12.2 0.00 0.00 0.00 60 1013.8
20260504032112 80 32 5.2 7.0 0.00 0.00 0.00 53 1013.8
20260504031610 80 34 5.2 7.0 0.00 0.00 0.00 55 1013.8
20260504025601 79 47 6.1 10.4 0.00 0.00 0.00 61 1014.0
20260504025100 78 43 6.1 8.7 0.00 0.00 0.00 63 1014.1
20260504024056 77 23 5.2 7.0 0.00 0.00 0.00 58 1014.2
20260504023554 77 50 7.8 10.4 0.00 0.00 0.00 66 1014.3
20260504022549 76 54 8.7 11.3 0.00 0.00 0.00 67 1014.5
20260504022047 77 59 9.6 12.2 0.00 0.00 0.00 66 1014.6
20260504021546 77 53 7.8 11.3 0.00 0.00 0.00 66 1014.7
20260504021044 77 52 7.8 10.4 0.00 0.00 0.00 65 1014.8
20260504020542 77 56 8.7 10.4 0.00 0.00 0.00 67 1014.9
20260504020041 76 47 7.0 9.6 0.00 0.00 0.00 67 1015.1
20260504015540 76 46 7.0 10.4 0.00 0.00 0.00 66 1015.1
20260504015038 75 43 6.1 8.7 0.00 0.00 0.00 69 1015.2